Regional Weather Roundup
Issued by NWS Wakefield, VA

Home | Current Version | Previous Version | Graphics & Text | Print | Product List | Glossary On
Versions: 1 2 3 4 5 6 7 8 9 10 11 12 13 14 15 16 17 18 19 20 21 22 23 24 25 26 27 28 29 30 31 32 33 34 35 36 37 38 39 40 41 42 43 44 45 46 47 48 49 50
000
ASUS41 KAKQ 260810
RWRAKQ

REGIONAL WEATHER ROUNDUP
NATIONAL WEATHER SERVICE WAKEFIELD VA
300 AM EST WED NOV 26 2014

Note: "fair" indicates few or no clouds below 12,000 feet with no
significant weather and/or obstructions to visibility. * = Denotes
station may not report precipitation (e.g., rain,snow,etc.),
thunder or fog.

VAZ042-051-052>054-056-260900-
NORTHERN VIRGINIA

CITY           SKY/WX    TMP DP  RH WIND       PRES   REMARKS
WASH NATIONAL  LGT RAIN  50  39  66 N7        30.11F
DULLES         LGT RAIN  42  39  89 NW5       30.12F
FORT BELVOIR   CLOUDY    47  40  76 W2        30.09F
QUANTICO       LGT RAIN  47  41  80 NW3       30.09F
FREDERICKSBRG* LGT RAIN  47  43  85 CALM      30.07F
STAFFORD*      RAIN      46  39  76 CALM      30.12F
WARRENTON      DRIZZLE   46  43  90 N6        30.08F
CULPEPER*      DRIZZLE   46  41  81 N5        30.09F
MANASSAS*      CLOUDY    45  43  93 CALM      30.11F
LEESBURG*      LGT RAIN  43  37  81 CALM      30.13S
WINCHESTER     CLOUDY    43  27  52 N3        30.13R
FRONT ROYAL*   CLOUDY    41  32  70 CALM      30.12R
LURAY*         CLOUDY    43  36  75 N5        30.09R
$$

VAZ048-049-060>072-079>083-260900-
CENTRAL AND SOUTH CENTRAL VIRGINIA

CITY           SKY/WX    TMP DP  RH WIND       PRES   REMARKS
RICHMOND       RAIN      47  44  90 NE10      30.04F FOG
CHESTERFIELD*  CLOUDY    46  36  66 NE7       30.05F
PETERSBURG*    RAIN      48  46  93 NE12G18   30.03F
HANOVER        LGT RAIN  46  43  89 VRB3      30.06F
TAPPAHANNOCK*  RAIN      46  42  83 N5        30.07F
QUINTON*       CLOUDY    46  44  95 NE3       30.05F
CHARLOTTSVILLE LGT RAIN  44  40  85 N5        30.07F
GORDONSVILLE*  CLOUDY    45  40  81 NE6       30.06F
ORANGE*        LGT RAIN  46  41  81 NW6       30.09F
LOUISA*        LGT RAIN  45  43  93 N5        30.04F
BUMPASS*       CLOUDY    45  43  93 CALM      30.07S
FARMVILLE*     LGT RAIN  48  48  99 N7        30.03F
CREWE*         CLOUDY    46  45  95 N3        30.02F
FORT PICKETT*  CLOUDY    46  45  97 NE9       30.00F
CHASE CITY*    CLOUDY    48  48 100 N6        29.99F
CLARKSVILLE*   CLOUDY    46  45  93 N8        29.97F
SOUTH HILL*    CLOUDY    46  45  96 N12G17    30.04F
LAWRENCEVILLE* CLOUDY    47  46  99 N5        29.99F
$$

VAZ088>098-260900-
SOUTHEAST VIRGINIA

CITY           SKY/WX    TMP DP  RH WIND       PRES   REMARKS
NORFOLK        RAIN      50  48  93 NE20      29.99F FOG
VIRGINIA BEACH LGT RAIN  54  51  90 NE18G29   29.98F FOG
NORFOLK NAVAL  LGT RAIN  52  48  86 NE22      30.02S FOG
WEST POINT*    CLOUDY    49  46  89 NE3       30.06F
SALUDA*        CLOUDY    47  44  87 NE6       30.06F
NEWPORT NEWS   RAIN      51  46  83 NE9G18    30.03F
LANGLEY AFB    LGT RAIN  46 N/A N/A NE25G35   30.03F
FORT EUSTIS    HVY RAIN  48  48 100 NE10      30.01F FOG
WILLIAMSBURG*  CLOUDY    50  48  93 NE6       30.03F
HR EXEC AP*    CLOUDY    48  46  93 NE9G16    30.01F
FRANKLIN*      CLOUDY    50  50 100 NE9       29.98F
WAKEFIELD      RAIN      49  47  93 N8G17     29.99F FOG
$$

VAZ020-022-025-037-045-260900-
WEST CENTRAL AND SOUTHWEST VIRGINIA

CITY           SKY/WX    TMP DP  RH WIND       PRES   REMARKS
STAUNTON*      LGT RAIN  41  35  78 N3        30.09F
WAYNESBORO*    CLOUDY    40  39  95 CALM      30.07S
HOT SPRINGS VA CLOUDY    38  25  60 CALM      29.99F
LYNCHBURG      LGT RAIN  41  39  93 NE5       30.05S
DANVILLE       LGT RAIN  47  44  90 N9        30.02R
SOUTH BOSTON*  CLOUDY    47  46  95 N7        30.00F
MARTINSVILLE   RAIN      43  43  99 N5        30.02F
ROANOKE        LGT RAIN  42  38  85 NE7       30.03F
BLACKSBURG     LGT RAIN  41  37  87 CALM      30.01F
DUBLIN*        RAIN      40  38  93 CALM      30.00F
MARION*        LGT RAIN  39  35  85 CALM      30.02F
HILLSVILLE*    MIX PCPN  37  37  98 N6        29.96F
RICHLANDS*     CLOUDY    44  26  50 CALM      29.98F
WISE*          CLOUDY    37  28  70 CALM      29.98S
ABINGDON*      CLOUDY    46  29  52 E6        29.97F
$$

MDZ021>025-VAZ099-100-260900-
SOUTHERN MARYLAND AND THE DELMARVA PENINSULA

CITY           SKY/WX    TMP DP  RH WIND       PRES   REMARKS
PATUXENT RIVER LGT RAIN  47  41  80 N8        30.08F
BAY BRIDGE APT DRIZZLE   46  37  71 CALM      30.11F
LEONARDTOWN    CLOUDY    45  41  87 CALM      30.09F
DOVER          LGT RAIN  45  43  93 NE8       30.11F
GEORGETOWN     LGT RAIN  47  41  80 N9        30.09F
EASTON         LGT RAIN  48  41  77 E6        30.14F
CAMBRIDGE      CLOUDY    46  41  81 NE3       30.08F
SALISBURY      LGT RAIN  49  40  71 NE7       30.09F
OCEAN CITY     LGT RAIN  50  41  71 NE12      30.09F
WALLOPS ISLAND LGT RAIN  47  40  76 NE16      30.07F
ACCOMACK*      LGT RAIN  48  39  71 NE9G17    30.06F
$$

NCZ012>017-030>032-260900-
NORTH CENTRAL AND EASTERN NORTH CAROLINA

CITY           SKY/WX    TMP DP  RH WIND       PRES   REMARKS
ROANOKE RAPIDS RAIN      48  46  93 N7        29.97S
RALEIGH        RAIN      50  47  89 N7        29.93F VSB 1
ELIZABETH CITY LGT RAIN  58  54  86 NE13      29.96F
AHOSKIE*       HVY RAIN  51  49  96 N10       29.95F
EDENTON*       DRIZZLE   55  55 100 NE13      29.92F
CURRITUCK*     DRIZZLE   55  54  94 NE12G17   29.96F
KILL DEVIL HLS LGT RAIN  60  60  99 NE3       29.93F
MANTEO         RAIN      59  59  99 N9G20     29.94F
CAPE HATTERAS  LGT RAIN  63  63 100 E7        29.91F
TARBORO*       RAIN      52  51  96 NE5       29.94F
GOLDSBORO      LGT RAIN  54  54 100 NE10      29.85F
WASHINGTON     CLOUDY    56  55  97 NE8       29.90F
GREENVILLE     RAIN      54  54 100 NE6       29.93F
NEW BERN       CLOUDY    61  58  90 NE7       29.89F
WILMINGTON     CLOUDY    63  63 100 NE7       29.81F FOG
$$

VAZ048-260900-
ELSEWHERE

CITY           SKY/WX    TMP DP  RH WIND       PRES   REMARKS
HARRISBURG PA  CLOUDY    41  33  73 N6        30.15F
BALTIMORE      CLOUDY    47  35  63 N3        30.11F
ANNAPOLIS      LGT RAIN  47  37  68 NW5       30.10F
ANDREWS AFB    LGT RAIN  46  39  76 N7        30.08F
PHILADELPHIA   CLOUDY    46  38  73 CALM      30.18F
WILDWOOD NJ*   CLOUDY    45  37  76 N6        30.12F
HENDERSON NC   RAIN      48  47  94 N7        29.96F
GREENSBORO     RAIN      45  42  89 N12       29.96F
ROCKY MOUNT    LGT RAIN  51  50  96 N10       29.92F FOG
$$

VAZ100-260900-
MARINE

STATION/POSITION TIME  TEMP    WIND        PRES    WAVE   SWELL
                       AIR SEA DIR/SP/G            HT/PER HT/PER
                 (UTC) (F)     (DEG/KT/KT) (MB)    (FT/S) (FT/S)
CAPE MAY NJ      0800   47 51  350/  2/  4 1020.1F
LEWES DE         0800   50 51   20/ 12/ 13 1019.5F
15NM E FENWICK I 0800   52 54              1019.5F   4/ 8
OCEAN-CITY-INLET 0800   51 50   70/  5/  9 1018.6F
WACHAPREAGUE VA  0800   50 53   30/ 16/ 23 1017.3F
THOMAS POINT MD  0800   47 48   30/ 11/ 11 1020.0F
GOOSES REEF MD   0800   48      70/  6/  8 1019.9F
COVE POINT MD    0800   47      30/  7/  9 1018.4F
SOLOMONS ISLAND  0800      50                N/A
BISHOPS HEAD MD  0800   47 49   30/ 12/ 14 1017.5F
PINEY POINT MD   0800           20/  6/  7   N/A
POTOMAC MD       0800   49      50/ 12/ 14 1017.2F
CAMBRIDGE MD     0800   47 46   60/  5/  7 1018.7F
LEWISETTA VA     0800   48 50   30/  5/  8 1018.1R
RAPPAHANNOCK LGT 0800           30/ 22/ 25 1017.6F
STINGRAY PT      0800   49      40/ 16/ 17 1018.2F
YORK RVR RNG VA  0800   47      50/ 27/ 32 1016.0F
YORKTOWN VA      0800   48 51   40/ 17/ 21 1016.5F
JAMESTOWN VA     0800   47      60/  8/ 14   N/A
DOMINION TERM VA 0800   50      50/  9/ 16 1015.7F
KIPTOPEKE VA     0800      56   50/ 11/ 17   N/A
CHES BAY BRIDGE  0800   50 52   30/ 21/ 24 1015.1F
CAPE HENRY VA    0800   51      40/ 27/ 30 1014.5F
CHESAPEAKE LGHT  0700   53      50/ 27/ 28 1016.2F
WILLOUBY STN VA  0800   49      30/ 21/ 23 1014.5F
S CRANEY ISL VA  0800          360/ 16/ 20 1015.2F
CAPE HENRY BUOY  0800      56                N/A     5/ 5
1ST LANDING BUOY 0800   52      40/ 23/ 27 1015.4F
CAPE CHARLES BUO 0800      55                N/A     5/ 5   2/ 9
64NM E OF VA BCH 0800   60 64   60/ 23/ 27 1014.7F   6/ 8   5/ 8
DUCK PIER NC     0800   59 58   50/ 19/ 22 1013.1F
44100 DUCK FRF   0800      59                N/A     4/10   2/11
44056 DUCK FRF   0800      58                N/A     4/ 8   2/11
OREGON INLET NC  0800   62 57   70/ 11/ 18 1013.1S
HATTERAS NC      0800   64 62   90/  7/ 10 1013.1F
DIAMOND SHLS NC  0800   69     110/  6/  6 1013.2F   5/ 9   5/ 9
CAPE LOOKOUT NC  0700   67     130/ 18/ 19 1011.9F
$$



USA.gov is the U.S. government's official web portal to all federal, state and local government web resources and services.